Location: Falcade
(46.3500°N, 11.8500°E)
Time: 07:56:37
(UTC+00:00)

Daily predictions for brighter satellites

Satellite Brightness Start Highest point End
(mag) Time Altitude Azimuth Time Altitude Azimuth Time Altitude Azimuth
Cosmos 2278 Rocket 2.4 19:06:37 10° S 19:12:05 53° ESE 19:17:34 10° NE
Meteor 1-26 Rocket 4.2 19:07:17 10° S 19:12:52 75° E 19:18:20 10° NNE
USA 306 3.0 19:10:36 10° WNW 19:14:53 79° SW 19:19:08 10° SE
Cosmos 1666 Rocket 3.7 19:14:01 10° N 19:18:25 80° W 19:22:44 10° S
Sich 1 4.2 19:14:38 10° NNW 19:18:49 46° W 19:23:01 10° SSW
ISS -2.8 19:16:23 10° SSW 19:19:16 27° SE 19:22:11 10° E
SJ 16-02 1.9 19:15:53 10° S 19:19:59 39° ESE 19:24:09 10° NE
CREW DRAGON DEMO-1 DEB 3.3 19:18:23 10° WNW 19:20:52 39° SW 19:23:21 10° SE
Cosmos 1602 4.1 19:18:38 10° NNW 19:22:31 69° W 19:26:23 10° S
IGS 5A 3.9 19:22:04 10° SE 19:26:02 46° ENE 19:30:02 10° N
BREEZE-M R/B 2.9 19:24:17 10° W 19:26:55 43° N 19:29:17 10° ENE
Cosmos 1777 Rocket 4.0 19:21:46 10° SSW 19:26:58 83° ESE 19:32:12 10° NNE
NOSS 3-4 (A) 4.0 19:20:27 10° NW 19:27:22 70° NE 19:35:07 10° SE
NOSS 3-4 (C) 4.0 19:20:33 10° NW 19:27:29 70° NE 19:35:13 10° SE
Cosmos 1151 Rocket 3.1 19:23:10 10° S 19:27:32 84° W 19:31:57 10° N
Resurs 1-3 3.7 19:24:46 10° SSE 19:29:09 83° WSW 19:33:34 10° NNW
deb Kosmos-1763 4.0 19:26:10 10° NNW 19:29:43 73° ENE 19:33:14 10° SSE
Meteor 2-6 Rocket 4.5 19:25:21 10° SSE 19:30:33 47° E 19:35:52 10° NNE
Cosmos 1242 Rocket 4.3 19:27:29 10° SW 19:30:45 35° WNW 19:34:00 10° N
Cosmos 1666 3.4 19:27:49 10° N 19:31:18 36° ENE 19:34:37 11° SE
Ariane Rocket 3.2 19:26:32 10° S 19:31:35 76° WSW 19:36:41 10° NNW
USA 186 4.1 19:31:49 10° SW 19:33:07 14° W 19:34:23 10° WNW
ARIANE 5 R/B 3.9 19:32:42 10° ESE 19:36:11 25° ENE 19:39:43 10° N
Meteor 1-14 Rocket 4.3 19:32:13 10° N 19:38:04 90° WSW 19:43:45 10° S
Cosmos 1812 2.8 19:34:29 10° S 19:38:15 60° E 19:42:05 10° NNE
Iridium 4 Rocket 4.4 19:33:18 10° SSE 19:38:40 39° E 19:44:06 10° NNE
ATLAS 2AS CENTAUR R/B 3.2 19:33:22 10° NW 19:40:40 54° NE 19:47:04 12° ESE
Cosmos 1833 Rocket 2.9 19:35:05 10° NNW 19:40:44 72° WSW 19:46:21 10° SSE
USA 245 3.9 19:41:15 14° ESE 19:42:23 19° ENE 19:44:11 10° NNE
USA 307 3.4 19:39:27 10° WNW 19:43:36 52° SW 19:47:12 13° SE
Cosmos 1709 Rocket 4.4 19:39:53 10° NNW 19:45:55 63° W 19:51:56 10° S
CZ-4C R/B 3.5 19:41:29 10° NW 19:48:40 57° WSW 19:56:52 10° SSE
Cosmos 158 Rocket 3.9 19:44:03 10° NNW 19:48:56 67° ENE 19:53:13 14° SSE
Cosmos 923 Rocket 4.4 19:45:30 10° NNW 19:50:39 52° ENE 19:54:56 15° SE
Cosmos 44 4.1 19:47:57 10° NNW 19:53:16 49° NE 19:57:31 15° ESE
Cosmos 1782 4.4 19:52:20 10° SW 19:56:03 37° WNW 19:59:47 10° N
Cosmos 2074 Rocket 4.1 19:50:25 10° N 19:56:43 65° ENE 20:02:26 13° SSE
USA 308 3.7 19:53:21 10° WNW 19:57:25 42° SW 20:00:33 16° SSE
Cosmos 2184 Rocket 4.1 19:51:44 10° N 19:57:54 63° ENE 20:03:22 13° SSE
Cosmos 1500 4.2 19:58:27 10° NNW 20:02:02 44° W 20:05:35 10° SSW
Cosmos 1743 4.5 19:59:31 10° NNE 20:02:19 19° ENE 20:04:02 15° ESE
CRYOSAT 2 4.5 19:58:53 10° S 20:03:46 81° W 20:08:41 10° N
Meteor 1-5 Rocket 4.3 20:02:10 10° NNW 20:07:30 72° W 20:12:45 10° S
Gbstr 26 Del rocket 4.5 20:01:45 10° WNW 20:09:37 73° NNE 20:15:50 12° ESE
Terra 2.9 20:12:16 18° ESE 20:15:03 31° ENE 20:19:13 10° N
MetOp-B 4.3 20:11:26 12° S 20:16:21 75° WSW 20:21:43 10° NNW
Cosmos 2297 4.0 20:11:30 10° S 20:16:53 45° ESE 20:22:15 10° NE
Cosmos 1461 4.0 20:14:09 17° SSE 20:16:56 30° ESE 20:20:58 10° NE
Meteor 1-11 Rocket 3.8 20:13:02 10° N 20:19:01 78° ENE 20:23:31 18° SSE
Cosmos 1900 4.4 20:14:46 10° SSW 20:19:44 56° ESE 20:24:41 10° NE
Cosmos 1515 Rocket 4.3 20:15:49 10° SSW 20:20:07 52° WNW 20:24:24 10° N
Cosmos 2228 Rocket 3.0 20:19:05 15° S 20:22:45 72° E 20:27:15 10° NNE
Cosmos 1340 Rocket 3.5 20:19:04 10° N 20:22:56 40° ENE 20:24:45 25° SE
Tianhe-1 2.0 20:22:20 10° SW 20:25:05 30° S 20:25:05 30° S
Resurs 01 Rocket 2.9 20:22:00 10° SSW 20:26:06 37° W 20:30:15 10° NNW
Cosmos 1869 Rocket 3.5 20:22:10 10° N 20:26:30 72° E 20:29:02 24° SSE
Cosmos 2112 Rocket 4.1 20:23:46 10° NNW 20:29:09 71° ENE 20:32:23 24° SSE
BREEZE M DEB (TANK) 1.3 20:26:57 10° WNW 20:30:41 83° SSW 20:31:13 48° ESE
Cosmos 2082 Rocket 2.7 20:26:05 10° NW 20:31:35 56° WSW 20:35:40 18° S
SPOT 1/Viking Rocket 3.8 20:27:48 16° S 20:31:56 68° WSW 20:37:07 10° NNW
ERS-1 Rocket 3.1 20:29:27 24° SSE 20:32:26 64° ENE 20:37:26 10° N
Spot 2 Rocket 3.5 20:35:19 21° S 20:38:44 78° WSW 20:43:48 10° NNW
Cosmos 1943 Rocket 2.4 20:35:06 18° S 20:39:09 50° ESE 20:44:33 10° NE
Cosmos 1937 Rocket 3.6 20:37:00 21° S 20:40:12 52° ESE 20:45:14 10° NNE
Meteor 2-12 Rocket 4.5 20:35:09 10° N 20:41:14 81° W 20:45:37 20° S
Cosmos 1707 Rocket 3.8 20:41:46 31° SSE 20:43:32 50° E 20:47:49 10° NNE
ERBS 2.5 20:40:39 10° NW 20:43:56 63° NE 20:44:57 39° ESE
CARTOSAT-1 3.6 20:42:25 26° S 20:44:49 74° WSW 20:49:09 10° NNW
SPOT 5 3.0 20:42:26 26° SSE 20:45:26 81° ENE 20:50:49 10° NNW
Cosmos 1536 2.9 20:42:49 10° NNW 20:46:52 77° W 20:48:44 30° S
DNEPR-1 R/B 4.0 20:41:37 10° SSW 20:47:40 71° SE 20:52:40 10° NE
Cosmos 1867 4.5 20:48:05 27° SE 20:48:44 27° ESE 20:53:17 10° NE
Cosmos 1271 Rocket 4.3 20:45:56 10° SW 20:49:37 35° WNW 20:53:20 10° N
Cosmos 2341 Rocket 4.2 20:48:01 10° N 20:54:23 61° ENE 20:57:43 29° SSE
Cosmos 1680 Rocket 3.8 20:49:21 10° NNW 20:54:37 63° WSW 20:57:31 26° S
SL-24 DEB 4.1 20:52:57 32° SSE 20:55:03 78° E 20:59:41 10° N
ISS -3.2 20:52:35 10° WSW 20:55:55 60° NNW 20:59:15 10° ENE
Cosmos 2278 Rocket 4.2 20:51:34 10° WSW 20:56:27 29° NW 21:01:22 10° N
Cosmos 1238 Rocket 3.9 20:51:25 10° N 20:57:04 51° ENE 20:59:04 33° SE
Cosmos 858 Rocket 4.4 20:54:38 22° S 20:58:00 72° ESE 21:03:14 10° NNE
SJ 16-02 3.7 20:55:05 10° WSW 20:58:43 24° WNW 21:02:21 10° N
Cosmos 2084 Rocket 3.5 20:55:07 10° NW 20:59:23 69° SW 21:00:52 40° SSE
Cosmos 1544 3.2 20:56:35 10° NNW 21:00:12 70° W 21:01:17 42° SSW
Cosmos 2369 Rocket 2.7 20:58:46 32° SE 21:00:30 40° ESE 21:05:44 10° NE
Cosmos 1975 3.9 21:01:12 10° N 21:04:46 31° ENE 21:05:24 29° E
Cosmos 1733 Rocket 3.0 21:06:57 10° N 21:11:17 71° E 21:12:25 47° SSE
ARIANE 5 R/B 3.8 21:10:14 21° SSW 21:12:29 36° W 21:16:30 10° NNW
SL-8 Rocket 4.1 21:07:39 10° N 21:13:59 67° E 21:16:50 34° SSE
RESURS DK-1 3.5 21:12:41 10° NNW 21:16:32 35° NE 21:17:43 29° E
Meteor 2-9 Rocket 4.3 21:10:59 10° N 21:16:42 65° ENE 21:18:52 37° SE
SL-27 R/B 4.4 21:16:50 10° NNE 21:19:13 18° ENE 21:19:32 18° ENE
BREEZE-M DEB (TANK) 2.8 21:17:49 10° WNW 21:18:58 30° W 21:18:58 30° W
Cosmos 372 Rocket 3.9 21:20:07 39° S 21:21:57 68° ESE 21:27:02 10° NNE
Cosmos 1898 Rocket 4.4 21:22:30 10° SW 21:27:38 48° WNW 21:32:48 10° NNE
Cosmos 1908 Rocket 4.1 21:26:52 10° N 21:31:11 43° ENE 21:31:53 40° ESE
ATLAS 2AS CENTAUR R/B 3.5 21:24:46 10° NW 21:31:26 41° WSW 21:34:30 27° SSW
Cosmos 1818 4.1 21:31:58 10° NW 21:37:12 46° WSW 21:38:46 36° SSW
Cosmos 1743 3.9 21:34:39 10° NNW 21:38:11 35° W 21:39:06 30° WSW
Cosmos 2263 4.3 21:36:42 43° SSE 21:38:20 58° ESE 21:44:01 10° NNE
Cosmos 864 Rocket 4.4 21:32:55 10° N 21:39:06 81° E 21:41:23 41° SSE
Cosmos 1959 Rocket 4.4 21:35:26 10° N 21:41:41 86° E 21:43:59 41° S
Cosmos 2242 Rocket 4.0 21:44:02 44° E 21:44:13 44° E 21:48:30 10° NNE
Meteor 1-19 Rocket 4.1 21:43:17 38° SSW 21:45:25 81° WNW 21:50:52 10° N
BREEZE-M R/B 3.6 21:46:34 10° WNW 21:48:00 32° WNW 21:48:00 32° WNW
Gblst 52 Del rocket 4.5 21:43:36 10° WNW 21:50:37 69° SW 21:52:43 43° SSE
Meteor 2-4 Rocket 3.7 21:50:59 48° SSE 21:52:33 70° E 21:58:05 10° NNE
Terra 3.0 21:51:09 27° SW 21:52:44 33° W 21:57:03 10° NNW
Cosmos 44 Rocket 4.1 21:49:11 10° NNW 21:54:15 47° NE 21:56:13 32° E
Cosmos 1461 4.3 21:51:26 10° WSW 21:55:54 42° NW 22:00:18 10° NNE
Okean 1-7 3.2 21:56:31 53° E 21:56:31 53° E 22:00:41 10° NNE
Gbstr 26 Del rocket 4.3 21:49:46 10° WNW 21:56:50 49° SW 21:58:20 42° S
Cosmos 2150 Rocket 4.1 21:56:18 53° SE 21:57:08 60° ESE 22:02:20 10° NNE
Cosmos 1862 Rocket 4.2 21:57:49 37° WSW 21:59:01 48° WNW 22:03:13 10° N
Cosmos 1703 Rocket 3.6 22:00:16 61° ESE 22:00:24 62° E 22:04:48 10° NNE
Cosmos 468 4.4 21:56:40 10° NNW 22:01:58 83° ENE 22:03:05 56° SSE
Cosmos 1782 Rocket 3.9 21:59:23 10° N 22:03:44 52° ENE 22:04:03 51° E
Cosmos 1125 Rocket 3.6 22:04:18 52° SE 22:04:48 55° ESE 22:09:54 10° NNE
Cosmos 1833 4.2 21:59:05 10° NNW 22:04:53 84° ENE 22:06:28 50° SE
ATLAS CENTAUR R/B 1.4 22:10:15 62° NNE 22:10:15 62° NNE 22:13:30 10° NE
Cosmos 1607 4.0 22:06:38 27° SW 22:10:24 86° NW 22:16:57 10° NE
COSMOS 2487 4.4 22:10:22 10° N 22:12:53 20° ENE 22:12:53 20° ENE
Cosmos 1821 Rocket 4.1 22:09:15 10° N 22:15:41 72° E 22:17:36 47° SSE
Cosmos 2366 rocket 4.4 22:10:44 10° NNW 22:16:44 53° W 22:18:59 36° SW
Cosmos 1943 Rocket 3.9 22:18:13 10° WSW 22:23:08 30° NW 22:28:03 10° N
Meteor 1-13 Rocket 4.2 22:22:22 55° SE 22:23:17 63° E 22:28:44 10° NNE
Spot 4 3.9 22:30:35 59° SW 22:31:08 64° WSW 22:35:59 10° NNW
Cosmos 1867 4.1 22:28:40 22° WSW 22:32:01 55° NW 22:37:26 10° NNE
Cosmos 1656 Rocket 3.9 22:30:07 37° SW 22:32:12 65° WNW 22:37:44 10° NNE
ISS -1.9 22:30:03 10° WNW 22:33:08 32° N 22:36:12 10° ENE
Cosmos 2221 Rocket 4.4 22:40:00 40° E 22:40:00 40° E 22:44:11 10° NNE
Cosmos 1048 Rocket 4.5 22:37:13 10° NNW 22:42:14 45° WSW 22:42:47 43° WSW
Cosmos 1733 4.1 22:40:38 10° N 22:43:52 42° NE 22:43:52 42° NE
Cosmos 2369 Rocket 3.5 22:40:29 15° WSW 22:44:34 37° NW 22:49:48 10° NNE
Cosmos 1400 Rocket 4.5 22:42:33 10° NNE 22:45:58 25° ENE 22:46:15 24° ENE
Cosmos 724 4.3 22:44:33 49° SSW 22:46:22 85° ESE 22:52:39 10° NE
ALOS 2 2.5 22:47:44 74° W 22:47:44 74° W 22:52:07 10° NNW
Cosmos 2344 4.3 22:39:37 10° NW 22:48:59 85° SW 22:56:38 29° SSE
Okean 3 3.5 22:51:44 73° WNW 22:51:44 73° WNW 22:55:52 10° N
BREEZE-M DEB (TANK) 3.9 22:39:34 10° WNW 22:52:10 59° SW 22:52:48 56° S
SeaSat 1 3.9 22:48:43 10° NE 22:52:11 23° E 22:52:11 23° E
SL-27 R/B 4.4 22:51:22 10° NW 22:53:01 22° WNW 22:53:01 22° WNW
Lacrosse 5 1.7 22:54:17 74° SSE 22:54:24 74° SE 22:59:30 10° NE
RESURS DK-1 4.1 22:50:58 10° NW 22:53:36 23° W 22:53:36 23° W
Cosmos 1356 Rocket 3.9 22:53:43 10° NNW 22:57:43 54° W 22:57:43 54° W
NOSS 2-1 (E) 4.2 22:53:49 10° NW 22:58:53 87° SW 23:00:42 50° SSE
Nimbus 7 Rocket 4.3 22:53:55 10° NNE 22:59:50 81° ESE 23:01:10 56° S
Nadezhda 3 Rocket 4.2 22:59:44 43° SW 23:01:39 62° WNW 23:07:49 10° N
Cosmos 1269 Rocket 3.9 22:57:03 10° NNW 23:02:23 84° ENE 23:03:10 65° SE
Cosmos 1300 Rocket 3.5 22:58:38 10° N 23:02:55 84° NW 23:02:55 84° NW
USA 215 3.9 23:04:11 10° E 23:10:31 55° NNE 23:16:52 10° NW
Thor Agena Rocket 3.5 23:09:35 10° NNE 23:14:54 84° ESE 23:15:40 66° S
Sich 1 Rocket 3.9 23:12:15 10° NNW 23:16:39 56° W 23:16:39 56° W
Cosmos 1805 3.9 23:15:16 10° NNW 23:18:27 47° WNW 23:18:27 47° WNW
COSMOS 2455 3.1 23:13:12 10° NNW 23:19:13 66° NE 23:21:45 35° SE
Okean 2 4.4 23:21:02 37° E 23:21:02 37° E 23:24:41 10° NNE
Cosmos 1726 3.6 23:17:34 10° NNE 23:20:43 29° ENE 23:20:43 29° ENE
[s.n.72151] 3.7 23:17:14 10° WNW 23:21:20 77° NNW 23:21:20 77° NNW
[s.n.72757] 3.8 23:17:15 10° WNW 23:21:21 77° NNW 23:21:21 77° NNW
[s.n.72237] 3.8 23:17:15 10° WNW 23:21:21 77° NNW 23:21:21 77° NNW
[s.n.72222] 3.8 23:17:15 10° WNW 23:21:21 77° NNW 23:21:21 77° NNW
[s.n.72252] 3.8 23:17:15 10° WNW 23:21:22 77° NNW 23:21:22 77° NNW
[s.n.72221] 3.8 23:17:16 10° WNW 23:21:22 77° NNW 23:21:22 77° NNW
[s.n.72220] 3.8 23:17:16 10° WNW 23:21:22 77° NNW 23:21:22 77° NNW
[s.n.72241] 3.8 23:17:16 10° WNW 23:21:22 77° NNW 23:21:22 77° NNW
[s.n.72240] 3.8 23:17:16 10° WNW 23:21:22 77° NNW 23:21:22 77° NNW
[s.n.72246] 3.8 23:17:16 10° WNW 23:21:22 77° NNW 23:21:22 77° NNW
[s.n.72256] 3.8 23:17:17 10° WNW 23:21:23 77° NNW 23:21:23 77° NNW
[s.n.72238] 3.8 23:17:17 10° WNW 23:21:23 77° NNW 23:21:23 77° NNW
[s.n.72215] 3.8 23:17:17 10° WNW 23:21:23 77° NNW 23:21:23 77° NNW
[s.n.72250] 3.8 23:17:17 10° WNW 23:21:23 77° NNW 23:21:23 77° NNW
[s.n.72255] 3.8 23:17:17 10° WNW 23:21:23 77° NNW 23:21:23 77° NNW
[s.n.72253] 3.8 23:17:17 10° WNW 23:21:24 77° NNW 23:21:24 77° NNW
[s.n.72249] 3.8 23:17:17 10° WNW 23:21:24 77° NNW 23:21:24 77° NNW
[s.n.72214] 3.8 23:17:18 10° WNW 23:21:24 77° NNW 23:21:24 77° NNW
[s.n.72145] 3.8 23:17:18 10° WNW 23:21:24 77° NNW 23:21:24 77° NNW
[s.n.72242] 3.8 23:17:18 10° WNW 23:21:25 77° NNW 23:21:25 77° NNW
[s.n.72155] 3.8 23:17:18 10° WNW 23:21:25 77° NNW 23:21:25 77° NNW
[s.n.72248] 3.8 23:17:19 10° WNW 23:21:25 77° NNW 23:21:25 77° NNW
[s.n.72166] 3.8 23:17:19 10° WNW 23:21:25 77° NNW 23:21:25 77° NNW
[s.n.72219] 3.8 23:17:19 10° WNW 23:21:25 77° NNW 23:21:25 77° NNW
[s.n.72191] 3.8 23:17:19 10° WNW 23:21:25 77° NNW 23:21:25 77° NNW
[s.n.72167] 3.8 23:17:19 10° WNW 23:21:25 77° NNW 23:21:25 77° NNW
[s.n.72190] 3.8 23:17:20 10° WNW 23:21:26 77° NNW 23:21:26 77° NNW
[s.n.72188] 3.8 23:17:20 10° WNW 23:21:26 77° NNW 23:21:26 77° NNW
[s.n.72187] 3.8 23:17:20 10° WNW 23:21:26 77° NNW 23:21:26 77° NNW
[s.n.72173] 3.8 23:17:20 10° WNW 23:21:26 77° NNW 23:21:26 77° NNW
[s.n.72139] 3.8 23:17:21 10° WNW 23:21:27 77° NNW 23:21:27 77° NNW
[s.n.72224] 3.8 23:17:21 10° WNW 23:21:27 77° NNW 23:21:27 77° NNW
[s.n.72063] 3.8 23:17:21 10° WNW 23:21:27 77° NNW 23:21:27 77° NNW
[s.n.72217] 3.8 23:17:21 10° WNW 23:21:27 77° NNW 23:21:27 77° NNW
[s.n.72231] 3.8 23:17:21 10° WNW 23:21:27 77° NNW 23:21:27 77° NNW
[s.n.72244] 3.8 23:17:21 10° WNW 23:21:28 77° NNW 23:21:28 77° NNW
[s.n.72232] 3.8 23:17:22 10° WNW 23:21:28 77° NNW 23:21:28 77° NNW
[s.n.72275] 3.8 23:17:22 10° WNW 23:21:28 77° NNW 23:21:28 77° NNW
[s.n.72233] 3.8 23:17:22 10° WNW 23:21:28 77° NNW 23:21:28 77° NNW
[s.n.72276] 3.8 23:17:22 10° WNW 23:21:29 77° NNW 23:21:29 77° NNW
[s.n.72245] 3.8 23:17:23 10° WNW 23:21:29 77° NNW 23:21:29 77° NNW
[s.n.72235] 3.8 23:17:23 10° WNW 23:21:29 77° NNW 23:21:29 77° NNW
[s.n.72227] 3.8 23:17:23 10° WNW 23:21:29 77° NNW 23:21:29 77° NNW
[s.n.72274] 3.8 23:17:23 10° WNW 23:21:29 77° NNW 23:21:29 77° NNW
[s.n.72236] 3.8 23:17:24 10° WNW 23:21:30 77° NNW 23:21:30 77° NNW
[s.n.72228] 3.8 23:17:24 10° WNW 23:21:30 77° NNW 23:21:30 77° NNW
[s.n.72234] 3.8 23:17:24 10° WNW 23:21:30 77° NNW 23:21:30 77° NNW
[s.n.72186] 3.8 23:17:24 10° WNW 23:21:30 77° NNW 23:21:30 77° NNW
[s.n.72251] 3.8 23:17:25 10° WNW 23:21:31 77° NNW 23:21:31 77° NNW
[s.n.72225] 3.8 23:17:25 10° WNW 23:21:31 77° NNW 23:21:31 77° NNW
[s.n.72713] 3.8 23:17:26 10° WNW 23:21:32 77° NNW 23:21:32 77° NNW
[s.n.72714] 3.8 23:17:26 10° WNW 23:21:32 77° NNW 23:21:32 77° NNW
Cosmos 1605 Rocket 4.0 23:15:35 10° N 23:21:55 82° E 23:23:41 51° SSE
Okean 2 Rocket 3.3 23:23:59 10° NNW 23:28:09 60° W 23:28:09 60° W
Meteor 1-15 Rocket 4.5 23:23:27 10° NNW 23:29:02 56° W 23:30:02 49° SW
Cosmos 2151 Rocket 3.5 23:25:52 10° NNW 23:30:21 75° W 23:30:21 75° W
Cosmos 2227 Rocket 3.1 23:28:59 10° NNW 23:34:23 44° NE 23:37:44 21° ESE
EO 1 Delta rocket 4.2 23:34:38 58° S 23:35:49 85° W 23:42:24 10° N
PSLV R/B 3.4 23:32:11 10° NNE 23:36:26 82° E 23:36:26 82° E
Cosmos 2297 Rocket 2.7 23:31:03 10° NNW 23:36:39 57° ENE 23:39:08 32° ESE
Cosmos 1766 4.0 23:33:47 10° NNW 23:36:58 44° WNW 23:36:58 44° WNW
Cosmos 1656 4.1 23:40:31 43° SE 23:41:12 46° ESE 23:46:28 10° NE
Timation 2 Rocket 4.3 23:40:39 10° NNW 23:46:34 60° ENE 23:49:54 26° SE
ATLAS CENTAUR R/B 3.9 23:47:05 10° WNW 23:49:12 14° NNW 23:51:20 10° N
Cosmos 1953 4.2 23:46:07 10° NNE 23:49:18 22° ENE 23:50:30 19° E
Cosmos 1378 Rocket 3.4 23:53:20 77° W 23:53:22 77° W 23:57:42 10° N
Cosmos 1975 Rocket 4.2 23:54:16 31° ESE 23:54:47 32° E 23:58:39 10° NNE
